519  
ASUS42 KMLB 161111  
RWRMLB  
HOURLY WEATHER ROUNDUP AROUND FLORIDA  
NATIONAL WEATHER SERVICE OFFICE MELBOURNE FL  
700 AM EDT SAT OCT 16 2021  
 
CITY SKY/WX TMP DP RH WIND PRES REMARKS
 
MELBOURNE CLEAR 69 68 96 W5 29.95R  
FORT PIERCE CLEAR 68 67 96 NW3 29.95R FOG  
ORLANDO INTL MOCLDY 74 69 85 NW3 29.97R  
DAYTONA BEACH PTCLDY 67 65 93 W3 29.96R  
VERO BEACH CLEAR 70 68 93 W6 29.95R  

   
..ELSEWHERE ACROSS CENTRAL FLORIDA
 
 
 
CITY SKY/WX TMP DP RH WIND PRES REMARKS
 
PATRICK AFB CLEAR 75 74 98 NW8 29.94R  
CAPE CANAVERAL CLEAR 74 70 89 NW6 29.94R  
TITUSVILLE CLEAR 72 70 94 CALM 29.96  
SEBASTIAN FAIR 69 68 96 NW3 29.96R  
ORLANDO EXEC CLOUDY 73 69 87 CALM 29.97R  
LEESBURG CLEAR 71 69 93 CALM 29.98R  
SANFORD CLEAR 69 66 90 NW3 29.96R  
DELAND CLEAR 68 67 97 CALM 29.97S  
NEW SMYRNA BCH PTCLDY 70 68 94 W3 29.94  
ORMOND BEACH CLEAR 66 66 100 CALM 29.97  
WINTER HAVEN CLEAR 72 69 90 CALM 29.98R  
KISSIMMEE CLOUDY 71 68 90 CALM 29.98R  
OKEECHOBEE MOCLDY 70 70 100 N3 29.95R  
TAMPA MOCLDY 77 70 79 CALM 29.97R  

   
..NORTHERN FLORIDA
 
 
 
CITY SKY/WX TMP DP RH WIND PRES REMARKS
 
PALM COAST FOG N/A N/A N/A CALM 29.96R VSB 1  
ST AUGUSTINE CLEAR 69 69 100 W7 29.97R  
OCALA CLEAR 64 64 100 CALM 29.98R FOG  
GAINESVILLE CLEAR 64 64 100 CALM 30.00R  
JACKSONVILLE CLEAR 65 65 100 CALM 29.95S  
TALLAHASSEE FOG 69 67 93 CALM 29.96S VSB 3/4  

   
..ALONG THE SOUTHEAST COAST TO THE KEYS
 
 
 
CITY SKY/WX TMP DP RH WIND PRES REMARKS
 
STUART PTCLDY 73 70 88 NW6 29.95R  
WEST PALM BCH PTCLDY 72 70 93 NW5 29.94R  
MIAMI PTCLDY 77 72 84 CALM 29.94R  
KEY WEST MOCLDY 80 72 76 S7 29.93R  

   
..MARINE REPORTS
 
 
 
STATION/POSITION TIME TEMP WIND PRES WAVE SWELL
 
AIR SEA DIR/SP/G HT/PER HT/PER  
(UTC) (F) (DEG/KT/KT) (MB) (FT/S) (FT/S)  
ST AUGUSTINE FP 1100 71 81 270/ 5/ 6 1014.8R  
20NM E CAPE CANA 1050 80 84 30/ 2/ 4 1013.3R 3/ 8 3/ 8  
120 E NEW SMYRNA 1050 79 30/ 6/ 10 1013.6R  
TRIDENT PIER 1024 75 83 350/ 3/ 5 1014.0  
4NM E PORT CANAV 1056 83 N/A 2/ 8  
6NM NE FPR INLET 1056 82 N/A 3/10 2/11  
SETTLEMENT PT GB 1100 79 CALM / 1 1013.5R  

 
 
 
CLICK HERE TO GO TO PREVIOUS BULLETINS.

The Nexlab FL Page Main Text Page